Date,TemperatureHighF,TemperatureAvgF,TemperatureLowF,DewpointHighF,DewpointAvgF,DewpointLowF,HumidityHigh,HumidityAvg,HumidityLow,PressureMaxIn,PressureMinIn,WindSpeedMaxMPH,WindSpeedAvgMPH,GustSpeedMaxMPH,PrecipitationSumIn
2013-1-6,50,43,37,41,37,28,98,79,57,30.31,30.15,14,2,14,0.02
2013-1-7,50,37,27,33,28,22,88,70,43,30.40,30.30,12,2,13,0.00
2013-1-8,57,40,27,44,34,23,90,78,50,30.39,30.27,5,1,8,0.00
2013-1-9,57,52,48,53,49,43,96,90,83,30.43,30.31,7,1,8,0.11
2013-1-10,64,54,50,58,51,49,94,89,75,30.42,30.11,10,3,11,0.05
2013-1-11,69,64,61,64,60,56,96,88,76,30.14,30.06,14,3,14,0.50
2013-1-12,70,65,62,65,62,58,96,91,80,30.12,30.00,5,1,7,0.05
2013-1-13,68,63,52,63,60,48,94,89,78,30.08,29.95,11,2,13,1.33
2013-1-14,51,43,38,48,41,36,97,93,86,30.27,29.41,13,4,14,1.68
2013-1-15,44,42,39,43,41,38,97,96,94,30.20,29.42,10,2,10,1.87
2013-1-16,50,45,42,47,43,40,98,93,86,30.10,29.95,6,1,11,0.12
2013-1-17,44,41,36,42,35,23,93,79,57,30.37,29.81,21,7,30,0.21
2013-1-18,53,37,27,32,26,15,92,67,25,30.58,30.38,8,1,9,0.00
2013-1-19,56,38,26,37,28,22,92,71,34,30.46,30.23,8,2,10,0.00
2013-1-20,62,45,32,39,33,26,86,63,37,30.25,30.15,8,2,9,0.00
2013-1-21,50,37,27,31,20,10,90,55,23,30.28,30.14,14,2,14,0.00
2013-1-22,41,31,24,16,6,0,58,36,21,30.41,30.26,11,3,14,0.00
2013-1-23,53,39,32,36,20,7,85,47,31,30.41,30.18,9,1,11,0.00
2013-1-24,50,39,28,40,20,0,77,47,21,30.42,30.19,15,5,16,0.00
2013-1-25,35,33,30,33,24,6,91,71,33,30.40,29.43,8,1,8,0.27
2013-1-26,51,39,30,35,32,28,92,77,52,30.36,30.22,7,2,8,0.00
2013-1-27,51,42,32,38,32,26,85,68,55,30.46,30.36,9,2,9,0.00
2013-1-28,60,50,44,48,40,32,87,68,58,30.40,30.26,9,2,9,0.00
2013-1-29,58,52,43,54,48,41,94,88,80,30.28,29.89,2,0,3,0.00
2013-1-30,67,56,39,64,52,31,93,85,64,29.89,29.59,17,4,19,1.51
2013-1-31,49,40,35,31,23,14,69,51,27,30.15,29.87,21,5,21,0.00
2013-2-1,46,32,22,32,11,0,76,43,21,30.46,30.09,19,4,19,0.00
2013-2-2,38,30,21,34,22,13,85,72,58,30.41,30.13,8,2,10,0.05
2013-2-3,54,41,30,35,28,23,86,62,31,30.19,30.05,13,4,19,0.01
2013-2-4,50,38,26,32,26,21,85,64,42,30.19,30.01,8,1,8,0.00
2013-2-5,64,50,41,44,38,31,89,67,38,30.08,29.97,9,2,9,0.00
2013-2-6,65,46,32,43,34,29,93,68,30,30.25,30.08,6,1,8,0.00
2013-2-7,53,47,42,45,38,33,90,72,52,30.17,29.98,8,1,11,0.01
2013-2-8,57,47,39,48,39,28,92,75,49,30.30,29.94,13,4,18,0.04
2013-2-9,57,43,32,32,27,24,74,56,30,30.37,30.25,15,4,15,0.00
2013-2-10,56,48,41,50,38,27,91,70,33,30.27,30.04,12,2,14,0.74
2013-2-11,59,53,44,54,44,32,92,73,40,30.19,30.04,7,1,10,0.06
2013-2-12,52,46,36,40,34,28,88,64,41,30.20,29.92,11,2,14,0.07
2013-2-13,51,44,41,45,38,31,93,81,65,30.05,29.74,14,2,14,0.08
2013-2-14,61,46,33,37,32,27,83,62,34,30.12,30.03,10,2,13,0.00
2013-2-15,62,44,32,40,32,26,89,66,39,30.14,30.04,13,3,18,0.00
2013-2-16,41,34,27,29,16,4,71,50,26,30.22,30.07,17,5,18,0.00
2013-2-17,49,32,17,20,12,4,77,47,21,30.32,30.20,10,2,13,0.00
2013-2-18,62,41,23,31,22,17,79,53,27,30.34,30.03,15,3,19,0.00
2013-2-19,56,46,36,45,28,9,93,56,21,30.25,29.99,17,4,19,0.54
2013-2-20,44,35,26,21,14,6,72,44,22,30.30,30.21,9,2,11,0.00
2013-2-21,52,40,30,39,22,13,94,52,25,30.25,29.98,12,3,14,0.74
2013-2-22,51,46,40,44,42,39,95,87,74,30.13,30.03,6,1,11,0.24
2013-2-23,58,49,42,47,44,38,94,84,65,30.07,29.88,4,0,8,0.20
2013-2-24,60,44,32,38,30,25,88,61,26,30.11,29.97,7,1,12,0.00
2013-2-25,56,47,38,42,30,23,70,51,36,30.06,29.81,6,2,11,0.00
2013-2-26,51,46,42,45,41,34,93,83,61,29.80,29.57,9,1,17,0.83
2013-2-27,56,46,40,36,33,29,83,62,41,29.93,29.78,8,3,15,0.00
2013-2-28,42,39,37,29,26,23,66,58,53,30.06,29.89,8,2,16,0.00
2013-3-1,43,38,36,30,27,24,70,63,57,30.06,30.01,5,1,12,0.00
2013-3-2,34,34,32,23,22,20,65,62,59,30.12,30.10,6,3,13,0.00
2013-3-3,41,33,26,21,18,13,69,54,33,30.15,30.09,7,2,13,0.00
2013-3-4,55,40,24,31,22,16,75,53,24,30.22,30.00,4,0,11,0.00
2013-3-5,58,48,38,54,41,24,95,77,55,30.02,29.68,13,2,27,0.66
2013-3-6,44,36,33,28,22,17,72,57,48,30.28,29.96,11,4,18,0.00
2013-3-7,49,39,33,30,26,22,70,60,47,30.38,30.27,11,3,16,0.00
2013-3-8,58,41,30,30,24,16,78,55,21,30.40,30.29,11,2,19,0.00
2013-3-9,62,49,36,36,30,27,71,49,28,30.34,30.18,5,1,10,0.00
2013-3-10,73,58,46,43,35,28,70,44,21,30.19,30.00,8,2,19,0.00
2013-3-11,62,56,42,56,49,38,99,80,49,30.03,29.76,8,2,17,0.91
2013-3-12,60,46,39,39,32,26,84,61,30,30.16,29.95,7,2,14,0.00
2013-3-13,51,41,32,36,25,17,86,56,31,30.38,30.13,11,2,15,0.00
2013-3-14,55,39,27,38,20,14,89,50,21,30.44,30.28,6,1,13,0.01
2013-3-15,75,53,31,47,39,30,100,65,32,30.31,29.97,8,1,14,0.00
2013-3-16,79,66,57,51,46,43,65,50,31,29.97,29.85,9,2,19,0.00
2013-3-17,76,65,56,55,49,46,80,58,40,30.00,29.89,8,2,14,0.00
2013-3-18,62,57,52,58,54,49,100,91,74,29.94,29.78,8,1,13,0.76
2013-3-19,64,51,36,53,31,15,100,54,21,30.17,29.92,8,2,18,0.01
2013-3-20,60,48,38,32,20,9,71,35,21,30.18,29.96,9,2,19,0.00
2013-3-21,47,36,26,30,12,1,71,39,22,30.08,29.96,8,2,15,0.00
2013-3-22,47,40,32,37,22,15,84,49,36,30.10,30.02,5,1,8,0.00
2013-3-23,54,45,38,47,40,33,100,83,68,30.05,29.80,8,1,10,0.15
2013-3-24,60,50,43,54,46,30,100,87,54,29.87,29.46,12,2,26,1.13
2013-3-25,43,37,34,31,24,21,70,60,51,30.11,29.72,11,4,24,0.00
2013-3-26,42,36,33,31,26,23,83,66,54,30.35,30.10,8,2,13,0.00
2013-3-27,56,40,26,30,25,19,91,58,25,30.40,30.29,9,1,13,0.00
2013-3-28,62,45,28,34,29,24,92,58,27,30.40,30.27,11,1,17,0.00
2013-3-29,57,45,34,42,35,29,92,72,39,30.38,30.25,9,2,14,0.00
2013-3-30,66,51,43,56,46,42,100,85,49,30.26,30.02,5,1,9,0.31
2013-3-31,69,59,54,60,56,53,100,91,62,30.03,29.89,5,1,10,0.56
2013-4-1,70,56,41,56,44,36,100,69,34,30.11,29.93,8,1,14,0.00
2013-4-2,60,49,39,38,26,19,68,44,23,30.27,30.11,8,2,13,0.00
2013-4-3,58,50,41,31,24,17,55,37,24,30.27,30.17,11,3,18,0.00
2013-4-4,51,44,41,44,42,31,100,94,47,30.19,30.01,5,1,10,1.24
2013-4-5,70,53,43,47,41,32,100,69,28,30.13,30.01,10,2,14,0.07
2013-4-6,75,56,37,45,40,36,100,63,26,30.22,30.07,8,1,13,0.00
2013-4-7,78,62,48,50,46,40,85,57,28,30.20,30.06,7,1,12,0.00
2013-4-8,79,66,52,58,53,48,93,66,43,30.13,30.04,7,1,12,0.00
2013-4-9,84,68,51,61,55,51,100,68,41,30.22,30.05,6,1,19,0.00
2013-4-10,87,70,54,61,57,53,100,67,37,30.14,29.91,8,1,12,0.00
2013-4-11,81,70,62,68,60,56,100,74,52,29.93,29.55,8,1,14,0.93
2013-4-12,69,60,49,63,46,35,100,65,29,30.00,29.66,9,2,13,0.09
2013-4-13,77,58,41,48,40,28,100,59,19,30.10,30.00,5,0,11,0.00
2013-4-14,64,55,46,56,48,42,100,80,51,30.07,29.96,2,0,8,0.08
2013-4-15,80,65,55,60,57,54,100,77,46,30.13,29.96,5,1,11,0.00
2013-4-16,82,69,60,66,62,58,97,80,55,30.26,30.13,5,1,12,0.00
2013-4-17,89,70,62,68,64,58,100,84,45,30.24,30.10,14,1,27,0.18
2013-4-18,85,70,58,68,60,55,100,73,40,30.10,29.84,8,2,16,0.01
2013-4-19,74,59,45,66,49,33,100,72,52,30.15,29.71,7,2,14,1.12
2013-4-20,65,50,34,40,32,23,99,55,22,30.31,30.15,8,1,16,0.00
2013-4-21,72,56,40,45,37,31,92,53,24,30.40,30.25,6,1,14,0.00
2013-4-22,76,58,41,49,43,37,100,65,27,30.36,30.15,5,0,10,0.00
2013-4-23,77,61,45,52,47,37,100,65,35,30.25,30.05,4,1,11,0.00
2013-4-24,71,60,49,64,53,41,94,77,64,30.27,30.04,6,2,14,0.05
2013-4-25,70,54,40,41,35,21,86,54,16,30.38,30.26,8,2,14,0.00
2013-4-26,76,57,39,53,40,31,100,58,23,30.42,30.28,7,2,13,0.24
2013-4-27,57,54,51,56,53,51,100,98,94,30.40,30.13,5,1,9,1.05
2013-4-28,62,58,53,60,57,53,100,98,95,30.15,29.94,4,1,11,1.71
2013-4-29,77,64,56,59,56,51,100,79,44,30.06,29.96,5,1,11,0.00
2013-4-30,82,64,48,60,54,47,100,74,34,30.11,29.99,5,1,11,0.00
2013-5-1,79,66,54,62,58,53,100,76,49,30.21,30.11,4,1,8,0.00
2013-5-2,78,66,53,62,57,53,100,75,50,30.21,30.12,4,1,11,0.00
2013-5-3,74,63,56,60,57,54,100,81,53,30.15,29.98,4,1,10,0.01
2013-5-4,64,55,52,57,54,52,100,96,68,29.99,29.91,4,0,12,2.96
2013-5-5,68,54,48,54,50,47,100,89,51,29.93,29.78,6,1,11,1.26
2013-5-6,61,52,47,53,50,47,100,93,66,29.95,29.81,3,1,9,0.25
2013-5-7,76,60,46,55,51,45,100,76,39,30.02,29.92,7,1,13,0.00
2013-5-8,79,65,53,62,57,53,100,77,44,30.09,29.99,5,1,8,0.00
2013-5-9,86,69,54,63,58,53,100,72,35,30.14,30.04,7,1,12,0.00
2013-5-10,76,67,56,63,59,56,100,78,54,30.10,29.97,5,1,11,0.00
2013-5-11,80,69,58,68,60,51,91,75,54,30.04,29.92,7,1,13,0.19
2013-5-12,69,59,47,53,38,24,93,51,22,30.19,30.03,8,2,14,0.00
2013-5-13,72,56,39,42,36,23,95,55,17,30.29,30.17,8,1,13,0.00
2013-5-14,85,64,42,59,50,41,100,65,35,30.27,30.08,7,1,17,0.00
2013-5-15,90,77,66,61,57,53,74,52,32,30.13,30.03,7,2,13,0.00
2013-5-16,88,72,59,64,60,57,95,69,38,30.11,29.99,6,1,12,0.00
2013-5-17,82,70,61,68,63,58,100,80,56,30.13,30.03,5,0,7,0.11
2013-5-18,79,71,65,72,68,65,100,90,72,30.09,30.01,4,1,9,0.54
2013-5-19,72,67,60,70,66,60,100,96,92,30.15,29.97,7,1,12,1.67
2013-5-20,88,70,57,71,64,57,100,83,50,30.15,30.02,4,1,10,0.00
2013-5-21,92,74,61,72,66,61,100,80,48,30.08,29.92,8,1,11,0.00
2013-5-22,87,72,64,71,67,64,100,87,49,30.00,29.88,6,1,11,0.51
2013-5-23,86,72,61,70,61,54,100,72,38,30.06,29.94,10,2,16,0.01
2013-5-24,76,66,55,56,50,41,92,59,30,30.30,30.06,10,2,16,0.00
2013-5-25,81,64,47,54,48,42,100,61,28,30.37,30.20,7,1,11,0.00
2013-5-26,84,67,51,58,53,50,100,67,34,30.31,30.18,6,1,11,0.00
2013-5-27,88,71,55,64,59,54,100,69,40,30.25,30.11,4,1,9,0.00
2013-5-28,90,75,62,66,62,59,100,68,38,30.21,30.11,4,1,10,0.00
2013-5-29,90,75,63,68,63,59,93,69,40,30.25,30.13,4,1,15,0.00
2013-5-30,88,75,65,68,66,63,96,73,49,30.25,30.12,7,1,15,0.00
2013-5-31,90,76,65,69,66,64,97,75,48,30.21,30.07,6,1,11,0.00
2013-6-1,86,79,70,77,69,65,87,73,57,30.11,29.99,4,1,11,0.01
2013-6-2,85,85,85,71,71,71,64,64,64,30.02,29.91,2,2,3,0.00
2013-6-5,71,69,67,68,68,66,100,97,84,29.94,29.92,2,0,3,0.01
2013-6-6,85,74,66,72,69,66,100,85,58,29.93,29.74,6,1,8,0.01
2013-6-7,88,72,66,72,68,65,100,89,50,29.87,29.72,4,1,8,0.12
2013-6-8,87,74,64,69,66,61,100,78,45,30.05,29.86,4,1,11,0.00
2013-6-9,87,72,66,73,69,65,100,89,59,30.09,29.95,5,1,11,1.04
2013-6-10,88,76,68,71,68,62,100,78,45,29.98,29.88,7,2,11,0.50
2013-6-11,93,80,68,74,70,66,100,76,44,30.03,29.95,5,1,11,0.14
2013-6-12,95,82,70,77,73,70,100,77,47,30.07,29.95,5,1,11,0.00
2013-6-13,93,82,73,75,71,65,92,72,53,29.95,29.76,8,2,18,0.00
2013-6-14,86,75,62,66,61,56,88,64,37,30.02,29.88,8,2,14,0.00
2013-6-15,90,75,61,66,63,59,94,68,42,30.12,30.02,4,1,9,0.00
2013-6-16,92,75,65,73,68,64,100,80,44,30.13,29.99,6,1,11,0.40
2013-6-17,87,74,68,74,70,68,100,89,56,30.06,29.92,4,1,9,0.52
2013-6-18,84,74,68,74,70,66,100,87,65,29.95,29.86,7,1,14,0.61
2013-6-19,89,75,63,70,66,62,100,76,43,30.07,29.94,4,1,11,0.00
2013-6-20,91,75,65,72,68,64,100,81,43,30.19,30.06,4,1,54,0.71
2013-6-21,90,76,67,72,68,62,100,79,41,30.25,30.14,4,1,8,0.01
2013-6-22,90,78,67,71,66,60,100,71,38,30.23,30.08,7,1,11,0.00
2013-6-23,92,77,66,72,68,65,100,76,45,30.19,30.07,4,1,10,0.00
2013-6-24,92,78,68,73,70,67,100,78,47,30.22,30.07,4,1,10,0.00
2013-6-25,92,80,71,75,72,66,95,79,46,30.16,30.00,5,1,11,0.00
2013-6-26,94,82,71,74,72,68,100,74,47,30.06,29.89,6,1,13,0.00
2013-6-27,93,81,74,76,72,68,100,75,53,29.95,29.81,7,2,16,0.27
2013-6-28,94,79,69,75,71,68,100,81,49,29.86,29.67,11,1,21,0.15
2013-6-29,91,78,68,73,66,57,100,71,35,29.74,29.66,6,1,12,0.06
2013-6-30,92,77,64,68,64,56,100,68,31,29.83,29.69,5,1,11,0.32
2013-7-1,86,71,64,72,67,63,100,88,60,29.91,29.79,4,1,12,0.76
2013-7-2,87,73,67,72,69,65,100,88,53,30.05,29.91,5,1,14,0.12
2013-7-3,75,71,68,72,70,67,100,95,84,30.15,30.05,3,0,6,0.17
2013-7-4,78,71,68,75,70,68,100,96,86,30.15,30.05,5,0,8,1.15
2013-7-5,76,72,69,73,70,68,100,94,86,30.18,30.08,4,1,11,0.37
2013-7-6,73,71,69,72,70,68,100,96,91,30.14,30.10,4,0,7,2.17
2013-7-7,84,74,68,75,71,68,100,92,67,30.17,30.09,4,0,7,1.82
2013-7-8,92,77,70,76,72,69,100,86,49,30.20,30.09,4,1,6,0.59
2013-7-9,95,80,73,79,74,70,100,85,47,30.17,30.05,4,1,8,0.05
2013-7-10,92,78,70,78,74,67,100,86,59,30.09,29.93,6,1,14,0.28
2013-7-11,89,76,70,76,72,69,100,88,55,30.00,29.88,4,1,8,0.24
2013-7-12,88,77,68,72,68,63,100,76,44,29.98,29.90,7,2,15,0.01
2013-7-13,88,75,63,72,67,62,100,79,53,30.07,29.95,5,1,14,0.00
2013-7-14,90,77,70,75,72,69,97,84,54,30.19,30.05,5,1,11,0.14
2013-7-15,91,78,69,74,71,67,100,81,47,30.29,30.19,7,1,14,0.07
2013-7-16,94,80,70,76,72,68,100,78,47,30.32,30.22,5,1,12,0.04
2013-7-17,96,82,71,76,72,69,100,76,44,30.29,30.14,6,1,12,0.02
2013-7-18,95,81,71,75,71,67,95,74,45,30.23,30.04,5,1,9,0.01
2013-7-19,96,82,72,76,72,66,97,74,38,30.12,29.96,5,1,10,0.09
2013-7-20,96,81,71,75,72,66,96,75,40,30.03,29.91,5,1,13,0.00
2013-7-21,91,79,73,74,72,70,95,82,54,30.03,29.93,4,1,11,0.08
2013-7-22,88,77,71,74,70,67,95,81,56,30.00,29.86,8,1,14,0.01
2013-7-23,87,78,72,75,71,69,91,81,64,29.95,29.82,6,1,11,0.01
2013-7-24,89,78,71,76,70,62,95,80,52,29.90,29.83,8,1,15,0.01
2013-7-25,89,76,65,69,66,63,97,72,43,30.04,29.90,5,1,11,0.00
2013-7-26,92,76,63,72,65,61,95,71,43,30.08,29.97,6,1,9,0.00
2013-7-27,90,78,70,73,68,62,92,74,41,30.00,29.88,5,1,11,0.00
2013-7-28,89,77,68,70,66,61,93,72,49,30.08,29.93,4,1,10,0.00
2013-7-29,86,70,59,64,60,54,92,71,42,30.19,30.06,5,1,10,0.00
2013-7-30,91,75,63,70,64,60,93,71,36,30.23,30.10,4,1,8,0.00
2013-7-31,80,72,68,73,70,66,97,90,75,30.15,29.96,4,1,10,0.56
2013-8-1,89,79,72,74,69,65,96,75,46,30.00,29.94,7,1,13,0.00
2013-8-2,91,77,65,69,65,61,100,71,39,30.05,29.97,5,1,11,0.00
2013-8-3,87,76,67,73,69,65,96,80,56,30.06,29.99,5,1,8,0.00
2013-8-4,91,79,70,73,68,62,94,70,42,30.08,30.00,7,1,11,0.00
2013-8-5,91,76,62,69,62,58,91,66,35,30.09,29.97,4,1,8,0.00
2013-8-6,89,77,71,75,70,66,96,79,54,30.01,29.95,5,1,9,0.13
2013-8-7,87,75,71,76,72,68,97,89,65,30.03,29.95,6,0,14,0.08
2013-8-8,94,78,72,76,72,70,96,85,54,30.05,29.97,8,1,11,0.14
2013-8-9,92,78,71,81,73,70,97,87,57,30.08,29.98,5,1,12,0.87
2013-8-10,93,78,72,77,74,69,97,87,56,30.13,30.06,8,1,14,0.53
2013-8-11,94,80,74,75,73,65,96,80,48,30.15,30.06,5,1,9,0.00
2013-8-12,94,78,71,76,72,69,96,83,48,30.12,29.98,5,1,11,0.38
2013-8-13,90,78,71,75,70,67,96,79,49,30.00,29.89,4,1,12,0.56
2013-8-14,84,74,66,70,64,57,89,71,45,30.05,29.94,6,2,14,0.00
2013-8-15,81,70,64,67,60,56,82,70,51,30.08,30.01,4,1,6,0.00
2013-8-16,77,70,64,65,62,59,86,77,62,30.10,30.03,4,0,8,0.00
2013-8-17,76,70,67,66,64,62,94,83,66,30.13,30.07,3,0,6,0.07
2013-8-18,80,70,66,71,67,64,95,89,63,30.18,30.10,5,0,9,0.54
2013-8-19,85,73,69,70,69,67,97,87,58,30.15,30.05,4,0,6,0.40
2013-8-20,89,77,69,72,70,67,96,79,54,30.17,30.08,4,1,8,0.00
2013-8-21,83,75,70,72,70,66,93,86,65,30.21,30.11,4,0,8,1.46
2013-8-22,90,76,71,74,71,66,95,85,55,30.18,30.05,5,1,15,0.24
2013-8-23,91,77,69,73,69,67,96,80,47,30.10,29.99,8,1,17,0.18
2013-8-24,90,76,66,72,68,65,97,79,49,30.24,30.06,6,1,13,0.00
2013-8-25,88,76,65,69,65,61,96,72,43,30.35,30.24,4,0,8,0.00
2013-8-26,88,74,62,67,64,61,100,74,45,30.32,30.14,7,1,9,0.00
2013-8-27,91,74,-40,71,66,-75,97,79,10,30.17,30.04,12,1,8,0.00
2013-8-28,93,78,67,75,70,66,100,78,49,30.08,29.99,4,0,5,0.00
2013-8-29,96,81,69,74,71,68,96,75,46,30.04,29.94,4,1,8,0.00
2013-8-30,92,79,72,76,73,69,96,83,54,30.01,29.92,4,0,9,0.00
2013-8-31,96,79,72,77,73,69,96,84,44,29.98,29.85,5,1,9,0.33
2013-9-1,89,76,71,77,72,70,97,89,64,29.94,29.85,4,1,9,0.13
2013-9-2,88,77,71,74,72,70,97,83,55,29.97,29.85,4,1,10,0.01
2013-9-3,92,80,70,75,70,64,95,74,42,30.01,29.87,5,1,10,0.00
2013-9-4,90,74,62,68,65,61,100,75,44,30.12,30.00,5,1,8,0.00
2013-9-5,88,73,62,67,64,61,97,75,48,30.16,30.09,4,1,10,0.00
2013-9-6,90,74,61,68,65,61,100,76,45,30.17,30.06,6,1,9,0.19
2013-9-7,90,75,63,71,67,62,100,78,47,30.13,30.00,4,1,9,0.00
2013-9-8,92,77,65,73,70,65,100,80,51,30.03,29.95,4,1,7,0.00
2013-9-9,92,79,71,75,71,69,94,80,49,30.11,30.00,4,0,11,0.00
2013-9-10,94,79,69,74,70,66,97,77,45,30.22,30.11,4,1,8,0.00
2013-9-11,93,78,69,74,69,65,97,76,42,30.24,30.10,4,1,6,0.00
2013-9-12,92,78,69,73,69,66,95,76,46,30.11,29.92,5,1,11,0.00
2013-9-13,85,74,62,68,61,52,93,66,37,29.98,29.88,8,2,12,0.00
2013-9-14,82,66,54,59,54,49,90,67,40,30.07,29.97,8,1,14,0.00
2013-9-15,87,68,54,67,60,54,97,78,45,30.17,30.07,6,1,11,0.00
2013-9-16,88,72,58,67,62,58,100,75,44,30.17,30.08,6,1,8,0.00
2013-9-17,86,74,66,67,63,60,85,70,50,30.21,30.11,6,1,10,0.00
2013-9-18,84,72,66,64,61,58,88,71,50,30.23,30.11,6,1,17,0.00
2013-9-19,88,72,60,68,63,60,100,76,46,30.19,30.04,5,1,10,0.00
2013-9-20,91,74,63,69,65,62,97,76,41,30.08,29.87,4,1,11,0.00
2013-9-21,75,68,59,69,65,58,96,90,78,29.89,29.75,4,1,16,1.77
2013-9-22,79,64,51,59,55,50,100,76,44,29.92,29.83,8,1,17,0.01
2013-9-23,84,67,56,63,58,54,96,75,45,30.01,29.91,4,1,10,0.00
2013-9-24,74,66,59,65,62,58,100,88,71,30.03,29.89,2,0,5,0.00
2013-9-25,69,67,66,67,65,64,100,94,89,29.89,29.83,2,0,6,0.32
2013-9-26,82,70,62,69,64,61,100,84,51,30.02,29.88,5,1,11,0.00
2013-9-27,84,68,56,67,60,56,100,80,42,30.15,30.02,4,1,9,0.01
2013-9-28,81,66,55,67,59,54,100,81,46,30.22,30.09,3,0,8,0.00
2013-9-29,78,65,54,64,58,53,100,81,48,30.15,30.01,4,0,8,0.02
2013-9-30,80,65,56,64,59,56,100,82,49,30.09,29.99,5,1,12,0.00
2013-10-1,82,68,57,68,62,57,100,85,54,30.16,30.04,5,0,10,0.00
2013-10-2,86,72,61,70,65,61,100,82,47,30.17,30.05,5,0,6,0.00
2013-10-3,87,74,64,70,66,62,100,79,45,30.13,30.04,4,1,10,0.00
2013-10-4,84,70,60,70,65,59,100,86,56,30.17,30.07,3,0,8,0.00
2013-10-5,90,73,62,70,65,62,100,81,47,30.13,29.99,4,1,9,0.00
2013-10-6,86,71,60,70,66,57,100,85,57,30.01,29.81,7,1,13,0.22
2013-10-7,72,62,54,58,52,48,100,75,43,30.05,29.90,8,2,15,0.01
2013-10-8,77,63,54,59,52,47,88,69,46,30.13,30.04,6,2,18,0.00
2013-10-9,79,65,54,62,58,53,100,81,52,30.19,30.09,4,1,8,0.00
2013-10-10,84,66,54,65,58,53,100,78,41,30.15,30.03,6,1,13,0.00
2013-10-11,83,63,48,60,54,47,100,76,30,30.09,29.99,4,0,8,0.00
2013-10-12,83,64,50,63,56,50,100,79,39,30.12,30.02,4,1,8,0.00
2013-10-13,83,65,51,64,57,51,100,79,44,30.22,30.11,5,1,13,0.00
2013-10-14,83,67,55,67,60,54,100,81,48,30.22,30.08,5,1,11,0.00
2013-10-15,74,67,62,63,61,59,95,81,64,30.15,30.04,4,1,10,0.00
2013-10-16,75,65,61,65,61,58,100,87,66,30.06,29.95,4,0,8,0.04
2013-10-17,74,65,52,70,62,52,100,89,64,30.01,29.88,5,1,10,0.17
2013-10-18,72,56,45,57,49,44,100,82,46,30.07,29.95,6,1,12,0.00
2013-10-19,73,58,47,56,52,45,100,84,54,30.03,29.90,4,1,13,0.00
2013-10-20,68,49,36,50,42,36,100,80,36,30.10,30.01,6,1,10,0.00
2013-10-21,73,53,38,53,46,38,100,81,41,30.13,29.98,4,0,7,0.00
2013-10-22,70,60,51,56,53,50,100,80,54,30.01,29.86,4,0,8,0.00
2013-10-23,57,50,38,52,41,34,100,74,43,30.10,29.84,7,1,17,0.00
2013-10-24,62,48,37,44,40,35,100,77,49,30.27,30.09,8,1,14,0.00
2013-10-25,56,42,30,36,30,25,90,65,36,30.44,30.27,8,1,12,0.00
2013-10-26,63,43,27,42,34,26,100,74,34,30.34,30.12,7,1,11,0.00
2013-10-27,66,56,48,54,48,41,94,77,56,30.14,30.08,4,0,9,0.00
2013-10-28,62,56,49,59,54,49,100,95,85,30.26,30.11,3,0,5,0.01
2013-10-29,72,60,53,61,56,53,100,88,63,30.32,30.20,3,0,6,0.00
2013-10-30,81,64,54,63,58,53,100,81,43,30.27,30.11,4,0,8,0.00
2013-10-31,73,66,59,66,61,57,95,85,73,30.13,29.73,7,1,19,0.04
2013-11-1,75,64,49,67,56,46,100,77,42,29.84,29.69,7,1,11,0.58
2013-11-2,68,53,42,58,44,36,100,76,35,30.10,29.83,6,1,14,0.00
2013-11-3,62,49,39,44,41,37,100,76,42,30.28,30.09,7,1,12,0.00
2013-11-4,67,49,35,47,40,35,100,76,39,30.40,30.28,8,1,13,0.00
2013-11-5,66,53,43,48,44,40,100,74,42,30.43,30.29,4,0,6,0.00
2013-11-6,74,60,47,61,55,45,100,85,62,30.30,30.06,5,0,13,0.04
2013-11-7,63,53,43,61,44,31,100,74,38,30.28,30.02,7,2,18,0.41
2013-11-8,59,45,34,35,30,22,90,59,25,30.38,30.25,8,1,14,0.00
2013-11-9,58,44,30,44,36,30,100,77,45,30.33,30.22,5,0,10,0.00
2013-11-10,72,54,40,48,41,32,100,66,26,30.31,30.21,5,1,11,0.00
2013-11-11,67,49,33,38,33,29,92,58,25,30.32,30.14,5,0,11,0.00
2013-11-12,54,43,32,44,31,14,88,64,39,30.52,30.12,11,3,16,0.00
2013-11-13,47,34,26,24,18,10,84,55,24,30.62,30.44,8,1,13,0.00
2013-11-14,58,36,21,35,23,17,96,67,22,30.48,30.26,5,0,10,0.00
2013-11-15,51,41,30,44,37,26,100,87,60,30.27,30.13,3,0,4,0.22
2013-11-16,59,50,44,58,49,44,100,98,91,30.21,30.09,3,0,5,0.01
2013-11-17,68,62,57,68,61,56,100,97,88,30.09,29.85,4,0,8,0.86
2013-11-18,68,58,46,68,44,32,100,62,31,30.15,29.86,11,2,15,0.09
2013-11-19,55,46,40,35,31,24,77,56,31,30.22,30.11,11,2,18,0.00
2013-11-20,62,45,30,42,35,29,100,73,34,30.30,30.16,4,0,10,0.00
2013-11-21,63,56,49,53,46,39,87,72,62,30.34,30.24,2,0,7,0.01
2013-11-22,59,56,53,57,55,52,100,95,87,30.30,30.18,4,0,9,0.14
2013-11-23,54,47,34,52,39,19,95,75,50,30.38,30.19,8,3,18,0.00
2013-11-24,39,31,24,21,12,3,64,47,23,30.54,30.38,12,3,22,0.00
2013-11-25,44,35,26,33,20,10,97,57,25,30.45,30.19,4,0,8,0.01
2013-11-26,44,38,33,44,37,33,100,97,86,30.19,29.74,10,2,16,0.92
2013-11-27,39,33,24,36,23,14,91,67,51,30.30,29.82,10,3,24,0.00
2013-11-28,47,30,18,28,20,12,89,69,42,30.46,30.30,6,1,10,0.00
2013-11-29,52,34,22,35,25,20,95,73,34,30.55,30.44,6,1,12,0.00
2013-11-30,56,38,25,37,28,23,96,72,34,30.51,30.29,5,1,12,0.00
2013-12-1,56,42,26,41,34,24,96,74,49,30.30,29.99,4,0,9,0.00
2013-12-2,49,47,45,49,46,40,100,96,74,29.99,29.80,2,0,4,0.04
2013-12-3,54,51,48,53,50,48,100,99,97,29.88,29.81,2,0,4,0.02
2013-12-4,72,60,52,64,57,52,100,91,69,29.97,29.85,5,0,11,0.00
2013-12-5,75,68,62,67,65,60,100,90,76,30.02,29.90,4,1,8,0.01
2013-12-6,68,53,40,67,52,39,100,95,90,30.18,29.87,6,1,11,1.13
2013-12-7,42,39,37,39,35,33,94,86,78,30.38,30.18,8,4,16,0.00
2013-12-8,47,42,36,47,40,33,100,96,86,30.31,30.07,7,1,11,0.98
2013-12-9,56,48,41,50,45,39,100,92,80,30.15,30.02,4,1,10,0.41
2013-12-10,43,37,26,42,32,24,100,82,53,30.36,29.99,7,2,14,0.37
2013-12-11,53,35,22,33,26,20,95,72,34,30.44,30.32,3,0,8,0.00
2013-12-12,45,33,26,25,19,10,76,59,25,30.52,30.39,7,1,11,0.00
2013-12-13,45,33,21,31,23,18,88,69,40,30.41,30.13,3,0,4,0.00
2013-12-14,49,42,37,49,40,31,100,91,74,30.16,29.80,6,1,11,0.76
2013-12-15,45,36,30,40,30,26,87,76,66,30.22,29.90,7,2,15,0.00
2013-12-16,54,39,27,37,31,25,96,75,46,30.25,30.11,5,1,11,0.00
2013-12-17,61,47,36,38,34,28,82,61,41,30.24,30.03,8,2,18,0.00
2013-12-18,54,37,26,29,24,21,88,62,30,30.35,30.23,3,0,8,0.00
2013-12-19,60,40,26,34,28,22,91,66,27,30.30,30.13,4,0,11,0.00
2013-12-20,63,52,38,52,41,31,85,68,45,30.17,30.05,8,0,13,0.00
2013-12-21,68,60,55,66,58,52,100,93,85,30.05,29.80,5,1,13,0.12
2013-12-22,70,59,55,66,57,54,97,92,83,30.06,29.78,8,1,21,1.36
2013-12-23,55,43,31,54,37,25,100,81,66,30.34,30.03,9,2,17,0.01
2013-12-24,38,31,25,26,19,12,88,63,38,30.48,30.34,8,1,14,0.00
2013-12-25,48,31,19,28,21,14,86,68,40,30.44,30.30,6,0,14,0.00
2013-12-26,53,35,24,34,26,21,93,72,43,30.38,30.28,4,0,7,0.00
2013-12-27,57,35,23,33,24,17,93,68,23,30.45,30.34,4,0,6,0.00
2013-12-28,42,35,27,38,31,23,100,87,65,30.38,29.96,4,0,8,0.77
2013-12-29,51,43,37,46,41,36,100,94,75,30.04,29.87,4,0,7,0.37
2013-12-30,42,39,37,42,34,30,100,83,66,30.22,30.03,5,1,9,0.00
2013-12-31,43,34,28,33,27,24,94,77,51,30.44,30.21,5,1,11,0.00
2014-1-1,50,35,25,35,29,23,95,79,47,30.34,30.08,5,0,10,0.00
2014-1-2,48,38,23,47,32,9,100,80,54,30.23,29.79,13,2,24,0.31